Regional Weather Roundup
Issued by NWS

Home | Current Version | Previous Version | Graphics & Text | Print | Product List | Glossary On
Versions: 1 2 3 4 5 6 7 8 9 10 11 12 13 14 15 16 17 18 19 20 21 22 23 24 25 26 27 28 29 30 31 32 33 34 35 36 37 38 39 40 41 42 43 44 45 46 47 48 49 50
000
ASUS43 KLOT 282108
RWRIL

ILLINOIS REGIONAL WEATHER ROUNDUP
NATIONAL WEATHER SERVICE CHICAGO/ROMEOVILLE IL
400 PM CDT SUN AUG 28 2016

NOTE: "FAIR" INDICATES FEW OR NO CLOUDS BELOW 12,000 FEET WITH NO
SIGNIFICANT WEATHER AND/OR OBSTRUCTIONS TO VISIBILITY.

* THESE STATIONS ARE NOT UNDER NWS QUALITY CONTROL. THEY ALSO MAY NOT
  REPORT WEATHER SUCH AS PRECIPITATION OR FOG.

ILZ001-002-007-009-015-016-024-282200-
NORTHWEST ILLINOIS

CITY           SKY/WX    TMP DP  RH WIND       PRES   REMARKS
MOLINE         MOSUNNY   88  72  58 SE9       30.11F HX  94
STERLING*      CLOUDY    86  74  67 E9        30.14F HX  94
SAVANNA*       CLOUDY    86  73  65 E6        30.14S HX  92
$$

ILZ003-004-008-010-011-017-018-282200-
NORTH CENTRAL ILLINOIS

CITY           SKY/WX    TMP DP  RH WIND       PRES   REMARKS
ROCKFORD       PTSUNNY   84  70  62 E7        30.17F HX  88
FREEPORT*      PTSUNNY   83  69  62 E3        30.18S HX  86
ROCHELLE*      MOSUNNY   78  69  75 SE9G17    30.17R
DE KALB*       CLOUDY    79  72  78 S9        30.19R HX  83
$$

ILZ005-006-012>014-019>023-282200-
NORTHEAST ILLINOIS

CITY           SKY/WX    TMP DP  RH WIND       PRES   REMARKS
CHICAGO-OHARE  MOSUNNY   81  68  64 E10       30.17F HX  84
CHICAGO-MIDWAY PTSUNNY   79  67  66 E8        30.17F HX  81
AURORA         CLOUDY    78  70  76 SE8       30.18F HX  80
LANSING*       RAIN      71  70  96 CALM      30.17F
JOLIET*        LGT RAIN  74  72  93 CALM      30.18F
WAUKEGAN       MOSUNNY   76  70  82 E7        30.20F
DUPAGE AIRPORT PTSUNNY   82  69  64 E9        30.17F HX  85
KANKAKEE*      CLOUDY    75  72  91 CALM      30.17F
WHEELING       MOSUNNY   77  69  76 NE10      30.19F
MORRIS*        PTSUNNY   73  69  89 CALM      30.17R
ROMEOVILLE*    CLOUDY    76  75  97 S5        30.17F
$$

LMZ740>746-282200-
SOUTHERN LAKE MICHIGAN

STATION/POSITION SKY/WX   TEMP    WIND        PRES    VSBY  WAVE
                          AIR SEA DIR/SP/G                  HT/PER
                          (F)     (DEG/KT/KT) (MB)    (MI)  (FT/S)
SOUTHERN BUOY              72 75   70/  4/  4 1022.4R         1
WILMETTE HARBOR            74 72   70/  4/  6   N/A           1/ 2
HARRISON CRIB              75      90/  8/  8   N/A
BURNHAM HARBOR             75      50/  3/  5   N/A
CALUMET HARBOR             74      40/  4/  5 1022.2F
BURNS HARBOR               75      30/  4/ 14 1022.7F
MICHIGAN CITY              75      10/  6/  7   N/A
MICHIGAN CITY 6N           75 77   50/ 10/ 10   N/A           2/ 3
ST. JOSEPH                 74 76   10/ 10/ 12 1021.7F         1/ 3
$$

ILZ025>027-034>036-040-047-049-050-058-095>099-282200-
WEST-CENTRAL ILLINOIS

CITY           SKY/WX    TMP DP  RH WIND       PRES   REMARKS
QUINCY         MOSUNNY   83  72  69 W3        30.12F HX  88
GALESBURG*     MOSUNNY   80  69  70 N5        30.14F HX  82
MACOMB*        PTSUNNY   83  74  74 S6        30.15R HX  90
JACKSONVILLE*  CLOUDY    85  74  71 N3        30.12F HX  92
PITTSFIELD*    CLOUDY    83  76  78 N5        30.12F HX  92
$$

ILZ028>032-037-038-041>044-048-051>054-059>061-282200-
CENTRAL ILLINOIS

CITY           SKY/WX    TMP DP  RH WIND       PRES   REMARKS
PONTIAC        RAIN      72  71  97 S8        30.19S
BLOOMINGTON    PTSUNNY   77  69  76 NE20G31   30.17R
DECATUR        MOSUNNY   89  71  55 SE8       30.13F HX  95
PEORIA         MOSUNNY   84  72  67 N14       30.14R HX  89
LACON*         TSTM      71  69  92 CALM      30.17S
LINCOLN*       CLOUDY    89  74  61 S3        30.12F HX  98
SPRINGFIELD    MOSUNNY   90  74  59 N5        30.12F HX  99
TAYLORVILLE    SUNNY     89  71  54 S6        30.11F HX  94
$$

ILZ033-039-045-046-055>057-062-063-282200-
EAST-CENTRAL ILLINOIS

CITY           SKY/WX    TMP DP  RH WIND       PRES   REMARKS
CHAMPAIGN      MOSUNNY   88  74  63 SE7       30.14F HX  96
RANTOUL*       MOSUNNY   90  73  57 SE3       30.14F HX  97
MATTOON        SUNNY     90  69  50 CALM      30.12F HX  94
PARIS*         SUNNY     89  73  59 CALM      30.14F HX  96
$$

ILZ079-100>102-282200-
SOUTHWEST ILLINOIS

CITY           SKY/WX    TMP DP  RH WIND       PRES   REMARKS
ALTON          MOSUNNY   90  70  51 S6        30.11F HX  95
BELLEVILLE     SUNNY     93  72  50 E6        30.08F HX 100
CAHOKIA*       PTSUNNY   92  69  47 E6        30.09F HX  97
SPARTA*        MOSUNNY   89  73  58 CALM      30.10F HX  97
$$

ILZ064>066-069>071-074>076-080>082-084>086-088>090-092>094-282200-
SOUTH-CENTRAL ILLINOIS

CITY           SKY/WX    TMP DP  RH WIND       PRES   REMARKS
CARBONDALE     SUNNY     88  74  63 SE5       30.09F HX  96
CAIRO*         SUNNY     91  77  64 NE3       30.07F HX 103
EFFINGHAM*     SUNNY     91  72  53 E5        30.13F HX  97
MARION         MOSUNNY   93  73  52 S7        30.10F HX 102
MT. VERNON     MOSUNNY   93  72  49 SE3       30.10F HX 100
CENTRALIA*     MOSUNNY   92  74  56 CALM      30.10F HX 101
SALEM*         MOSUNNY   91  72  53 NE3       30.11F HX  98
METROPOLIS*    SUNNY     94  74  51 E5        30.08F HX 103
$$

ILZ067-068-072-073-078-083-087-091-282200-
SOUTHEAST ILLINOIS

CITY           SKY/WX    TMP DP  RH WIND       PRES   REMARKS
LAWRENCEVILLE  MOSUNNY   92  73  53 NE5       30.10F HX 100
FLORA*         PTSUNNY   92  75  56 E6        30.10F HX 103
FAIRFIELD*     MOSUNNY   84  77  80 CALM      30.09F HX  94
HARRISBURG*    SUNNY     90  74  59 NE5       30.09F HX 100
ROBINSON*      SUNNY     90  73  57 CALM      30.11F HX  99
CARMI*         MOSUNNY   89  76  65 S3        30.09F HX 100
$$

ABBREVIATIONS USED IN REMARKS
   TC - TEMPERATURE IN CELSIUS
  WCI - WIND CHILL INDEX
   HX - HEAT INDEX
  VSB - VISIBILITY
$$





USA.gov is the U.S. government's official web portal to all federal, state and local government web resources and services.